[[{"header":{"parameterUnit":"m.s-1","parameterCategory":1,"la1":30.2991,"la2":30.254,"lo1":-89.0895,"lo2":-89.0444,"dy":0.0017,"dx":0.0017,"nx":28,"ny":28,"refTime":"2025-06-07T21:00:00:Z","depth":0,"parameterNumber":2,"parameterNumberName":"U-component_of_WINDS"},"data":[0,0,0,0,0,0,0,0,0,0,0,0,0,0,0,0,0,0,0,0,0,0,0,0,0,0,0,0,0,0,0,0,0,0,0,0,0,0,0,0,0,0,0,0,0,0,0,0,0,0,0,0,0,0,0,0,0,0,5.2448,5.2449,0,5.2518,5.2519,5.252,5.2375,5.237,5.2365,5.2361,5.2437,5.2443,5.2449,0,0,0,0,0,0,0,0,0,0,0,0,0,5.2193,5.2198,5.2448,5.2449,5.245,5.2518,5.2519,5.252,5.2376,5.237,5.2364,5.2359,5.2435,5.2442,5.245,0,0,0,0,0,0,0,0,0,0,0,0,0,5.2288,5.22,5.2448,5.2386,5.2381,5.2518,5.2519,5.252,5.2377,5.237,5.2363,5.2356,5.2432,5.2441,5.2451,5.2652,0,0,5.248,5.2484,0,0,0,0,0,0,0,0,5.2282,5.2297,5.2394,5.2391,5.2385,5.243,5.2456,5.2564,5.2379,5.2379,5.2361,5.2353,5.2441,5.2449,5.2478,5.2656,5.2659,5.2481,5.2487,5.2491,5.2494,0,0,0,0,0,0,0,5.2276,5.2293,5.2476,5.2396,5.2391,5.2356,5.2361,5.2476,5.2449,5.2378,5.2368,5.2378,5.2437,5.2469,5.2479,5.266,5.2481,5.2489,5.2495,5.2499,5.3003,5.301,0,0,0,0,0,0,5.2277,5.2289,5.2474,5.2478,5.2315,5.2366,5.2372,5.2423,5.2447,5.2444,5.2384,5.2371,5.2456,5.2467,5.2481,5.2714,5.2491,5.25,5.2506,5.2995,5.3005,5.3013,0,0,0,0,0,0,5.2272,5.2295,5.2471,5.2381,5.24,5.2378,5.2436,5.2428,5.246,5.2451,5.2446,5.2421,5.2451,5.2467,5.2609,5.2715,5.2504,5.2513,5.2986,5.2998,5.3009,5.3186,0,0,0,0,0,0,5.2265,5.2294,5.2369,5.2383,5.2406,5.2598,5.2443,5.2435,5.2476,5.246,5.2485,5.2482,5.2446,5.2596,5.2619,5.2725,5.2521,5.2977,5.2992,5.3005,5.3171,5.3202,5.3229,0,0,0,0,0,5.2257,5.2418,5.2374,5.2397,5.25,5.2605,5.2617,5.2571,5.2486,5.2561,5.2555,5.2482,5.2701,5.2612,5.2636,5.2747,5.297,5.2987,5.3004,5.3158,5.3196,5.3229,0,0,0,0,0,0,5.2419,5.2419,5.237,5.2541,5.2574,5.258,5.2674,5.2614,5.2673,5.2656,5.2598,5.2605,5.2758,5.2767,5.2668,5.2941,5.2821,5.2844,5.2929,5.2965,5.2994,5.2988,5.2529,0,0,0,0,0,5.2475,5.2559,5.2555,5.2706,5.2725,5.2697,5.2741,5.2703,5.2735,5.2749,5.2753,5.2788,5.2864,5.2916,5.2986,5.3172,5.3174,5.326,5.329,5.3314,5.3333,5.343,5.3467,5.3069,5.3069,5.3069,0,0,5.2591,5.2601,5.2658,5.2739,5.276,5.2848,5.271,5.281,5.2875,5.2764,5.2897,5.2903,5.2938,5.3102,5.3175,5.3114,5.3444,5.3336,5.3355,5.3361,5.3451,5.3489,5.3522,5.3081,5.3079,5.3077,0,0,5.2846,5.2864,5.2989,5.3013,5.3045,5.3026,5.3056,5.3072,5.307,5.3203,5.312,5.3198,5.3332,5.3359,5.339,5.3655,5.3589,5.368,5.3832,5.3927,5.3958,5.3985,5.4077,5.4111,5.3701,5.3701,5.3701,0,5.2986,5.3115,5.3062,5.3167,5.3204,5.3107,5.3234,5.326,5.3315,5.3343,5.3274,5.3437,5.3455,5.3623,5.3687,5.3717,5.3749,5.3676,5.3958,5.3985,5.4009,5.4096,5.4131,5.3712,5.371,5.3709,5.3708,0,5.3283,5.3375,5.3473,5.3525,5.3574,5.369,5.3655,5.3712,5.3669,5.3657,5.3793,5.381,5.388,5.3918,5.3879,5.408,5.4041,5.3967,5.3844,5.4059,5.4139,5.4172,5.3727,5.3723,5.372,5.3717,0,0,5.3642,5.3663,5.37,5.3721,5.375,5.3819,5.3931,5.3998,5.4046,5.4088,5.4178,5.4293,5.4223,5.4259,5.4223,5.4306,5.4511,5.422,5.422,5.4271,5.473,5.4784,5.4823,5.4468,5.4474,5.4479,5.4726,0,5.3891,5.408,5.4036,5.4223,5.4305,5.4214,5.4311,5.4339,5.4331,5.44,5.4392,5.4472,5.4376,5.4396,5.4475,5.4469,5.4602,5.4452,5.4551,5.4555,5.4541,5.4866,5.4923,5.5155,5.4758,5.4763,5.4767,0,5.4208,5.4258,5.4453,5.4466,5.4499,5.4587,5.4643,5.4711,5.4742,5.473,5.4769,5.4716,5.4826,5.4705,5.4855,5.4753,5.4792,5.4795,5.4803,5.4808,5.4672,5.4876,5.5228,5.5262,5.4816,5.4812,5.4809,0,5.4445,5.4563,5.4693,5.4715,5.4735,5.4798,5.481,5.4833,5.4875,5.4926,5.4952,5.5017,5.5051,5.5102,5.5067,5.4982,5.5222,5.5098,5.5214,5.5215,5.5266,5.5262,5.5626,5.5297,5.5297,5.5296,5.5295,0,5.4726,5.4848,5.4799,5.488,5.5013,5.4962,5.5096,5.5097,5.5119,5.5197,5.5124,5.52,5.5151,5.5223,5.5197,5.5323,5.5341,5.5333,5.5324,5.5338,5.5338,5.536,5.5342,5.5305,5.5303,5.5301,5.53,0,5.5012,5.4985,5.5121,5.5128,5.5133,5.5231,5.5236,5.5311,5.5298,5.5398,5.5419,5.5398,5.5479,5.545,5.5537,5.5519,5.5679,5.5651,5.5668,5.566,5.5776,5.5764,5.6163,5.6211,5.5855,5.5858,5.5861,0,5.5191,5.5283,5.5299,5.5346,5.5362,5.5439,5.5481,5.5435,5.5482,5.5522,5.5592,5.5666,5.5722,5.5855,5.5848,5.5914,5.5885,5.602,5.5894,5.5904,5.5882,5.5876,5.5884,5.6044,5.6048,5.6052,5.6055,0,5.5512,5.5493,5.5556,5.5615,5.5667,5.5712,5.5749,5.5792,5.5748,5.5805,5.5885,5.5929,5.6016,5.609,5.6149,5.6161,5.6101,5.6095,5.6124,5.6137,5.6142,5.6137,5.5733,5.6085,5.6082,5.608,5.6078,5.6077,5.5747,5.5823,5.5845,5.5918,5.5941,5.5978,5.6047,5.6042,5.6108,5.6174,5.6144,5.6236,5.6263,5.6335,5.6356,5.6428,5.6375,5.6419,5.643,5.644,5.6453,5.6133,5.6439,5.6438,5.6437,5.6437,5.6436,0,5.606,5.607,5.6137,5.6191,5.6248,5.6186,5.6225,5.6276,5.6358,5.6388,5.6444,5.6536,5.6607,5.6606,5.6672,5.6729,5.6703,5.6748,5.6741,5.6745,5.6498,5.6464,5.6768,5.6768,5.6768,5.6768,5.6767,5.6767,5.6229,5.6353,5.6338,5.6472,5.6481,5.657,5.6597,5.663,5.6653,5.6758,5.6816,5.6815,5.6832,5.6898,5.696,5.6958,5.6984,5.7039,5.7026,5.6795,5.6762,5.6731,5.6698,5.7046,5.7046,5.7265,5.7267,5.7269]},{"header":{"parameterUnit":"m.s-1","parameterCategory":1,"la1":30.2991,"la2":30.254,"lo1":-89.0895,"lo2":-89.0444,"dy":0.0017,"dx":0.0017,"nx":28,"ny":28,"refTime":"2025-06-07T21:00:00:Z","depth":0,"parameterNumber":3,"parameterNumberName":"V-component_of_WINDS"},"data":[0,0,0,0,0,0,0,0,0,0,0,0,0,0,0,0,0,0,0,0,0,0,0,0,0,0,0,0,0,0,0,0,0,0,0,0,0,0,0,0,0,0,0,0,0,0,0,0,0,0,0,0,0,0,0,0,0,0,5.6952,5.6954,0,5.7128,5.713,5.7132,5.7117,5.7114,5.7112,5.7109,5.7286,5.7293,5.73,0,0,0,0,0,0,0,0,0,0,0,0,0,5.6597,5.6603,5.6952,5.6954,5.6956,5.7128,5.713,5.7133,5.7117,5.7114,5.7111,5.7108,5.7284,5.7292,5.7301,0,0,0,0,0,0,0,0,0,0,0,0,0,5.676,5.6606,5.6952,5.697,5.6973,5.7128,5.7131,5.7134,5.7118,5.7114,5.711,5.7106,5.7281,5.7291,5.7302,5.7449,0,0,5.7335,5.734,0,0,0,0,0,0,0,0,5.6751,5.6773,5.6965,5.6969,5.6973,5.7097,5.707,5.7239,5.7119,5.7063,5.7109,5.7104,5.7226,5.7241,5.7283,5.7457,5.7465,5.7336,5.7342,5.7347,5.735,0,0,0,0,0,0,0,5.6739,5.6765,5.7022,5.6967,5.6972,5.6967,5.6986,5.7102,5.7165,5.7067,5.7067,5.7088,5.7227,5.7272,5.7287,5.7467,5.7336,5.7345,5.7352,5.7356,5.7768,5.7772,0,0,0,0,0,0,5.6724,5.6756,5.7016,5.7027,5.685,5.6977,5.6998,5.7061,5.7163,5.7175,5.7091,5.7087,5.7256,5.7274,5.7293,5.747,5.7347,5.7357,5.7363,5.7763,5.7769,5.7774,0,0,0,0,0,0,5.6717,5.6748,5.7009,5.6891,5.6924,5.6987,5.7058,5.7066,5.7112,5.7182,5.7192,5.7126,5.7253,5.7278,5.741,5.7476,5.7362,5.7372,5.7758,5.7765,5.7771,5.7825,0,0,0,0,0,0,5.6707,5.6745,5.6803,5.6893,5.6931,5.7125,5.7062,5.7073,5.7131,5.7126,5.7217,5.7228,5.7252,5.7394,5.7421,5.7488,5.738,5.7752,5.7761,5.7769,5.7818,5.7833,5.7846,0,0,0,0,0,5.6694,5.6811,5.6806,5.6838,5.7005,5.7129,5.715,5.7176,5.7136,5.7194,5.7238,5.7225,5.7464,5.7407,5.7437,5.751,5.7748,5.7759,5.7768,5.7812,5.783,5.7846,0,0,0,0,0,0,5.6727,5.6824,5.6819,5.6969,5.7041,5.7126,5.72,5.7196,5.7279,5.7272,5.7299,5.732,5.7452,5.7494,5.7429,5.7655,5.7601,5.7617,5.7623,5.7641,5.7655,5.7642,5.7389,0,0,0,0,0,5.6752,5.6847,5.6925,5.705,5.7086,5.7137,5.7192,5.7206,5.7281,5.731,5.7365,5.7437,5.7527,5.7587,5.7675,5.7824,5.7842,5.7888,5.7902,5.7913,5.7927,5.8006,5.8026,5.7806,5.7806,5.7806,0,0,5.6805,5.6869,5.6926,5.7058,5.7115,5.721,5.7162,5.7265,5.7335,5.7326,5.7453,5.7496,5.7577,5.7718,5.7783,5.7757,5.7992,5.7926,5.7935,5.7942,5.8018,5.8039,5.8057,5.7813,5.7812,5.7811,0,0,5.6948,5.7007,5.7116,5.7174,5.7262,5.7294,5.732,5.7406,5.7433,5.7562,5.7556,5.7639,5.7796,5.7854,5.7904,5.8066,5.8056,5.8094,5.8167,5.8243,5.8261,5.8276,5.8332,5.8351,5.8107,5.8108,5.8108,0,5.7001,5.7145,5.7172,5.7276,5.7333,5.7329,5.7438,5.7493,5.7604,5.7642,5.7612,5.7807,5.7863,5.8015,5.8054,5.8096,5.8124,5.8083,5.8256,5.8272,5.8287,5.834,5.8361,5.8111,5.8111,5.8111,5.811,0,5.7205,5.7305,5.7383,5.749,5.7556,5.7662,5.7702,5.7765,5.7773,5.7808,5.7937,5.8003,5.8103,5.814,5.8149,5.8293,5.8274,5.825,5.8195,5.8311,5.8361,5.8382,5.8117,5.8115,5.8114,5.8113,0,0,5.7375,5.7495,5.7523,5.757,5.7665,5.7742,5.7846,5.7945,5.7997,5.8073,5.8159,5.8291,5.8269,5.8326,5.834,5.8408,5.8529,5.8375,5.8377,5.8399,5.8689,5.8705,5.8728,5.8523,5.8527,5.8531,5.8681,0,5.7526,5.7712,5.7738,5.7902,5.7993,5.799,5.808,5.8147,5.8182,5.8262,5.83,5.8393,5.8357,5.8391,5.8458,5.85,5.8587,5.849,5.8602,5.8605,5.858,5.8755,5.8773,5.8912,5.8701,5.8705,5.8707,0,5.7727,5.7809,5.7982,5.8062,5.8101,5.8182,5.8273,5.8351,5.8425,5.8446,5.8508,5.8514,5.8619,5.8561,5.8705,5.8638,5.8685,5.8713,5.8719,5.8729,5.8662,5.8768,5.8958,5.8978,5.8739,5.8736,5.8734,0,5.783,5.7984,5.8106,5.8147,5.8245,5.8301,5.8344,5.8415,5.8472,5.855,5.8587,5.8677,5.8725,5.8794,5.8822,5.8778,5.8964,5.8908,5.8981,5.8981,5.902,5.9017,5.9218,5.9054,5.9053,5.9053,5.9052,0,5.7995,5.81,5.8153,5.8229,5.8345,5.8373,5.8488,5.8528,5.8591,5.8672,5.8675,5.8751,5.8785,5.8866,5.8889,5.9003,5.9026,5.9043,5.9048,5.9042,5.904,5.9072,5.9063,5.9058,5.9057,5.9056,5.9055,0,5.813,5.817,5.8303,5.8384,5.8407,5.8489,5.8557,5.8629,5.8662,5.8765,5.8791,5.8843,5.8938,5.8974,5.9089,5.9105,5.9236,5.9234,5.9211,5.9211,5.9282,5.9274,5.9509,5.954,5.9357,5.9359,5.9361,0,5.8231,5.8312,5.8402,5.8457,5.8501,5.859,5.8648,5.8678,5.8737,5.8827,5.8887,5.8982,5.9059,5.921,5.9257,5.9344,5.9343,5.9419,5.9356,5.9347,5.9341,5.9335,5.9342,5.943,5.9432,5.9434,5.9435,0,5.8406,5.8422,5.8505,5.8596,5.8664,5.8736,5.8806,5.8851,5.8891,5.8957,5.9054,5.9114,5.9232,5.9324,5.9414,5.9456,5.9452,5.9455,5.9476,5.947,5.9453,5.9461,5.9241,5.9449,5.9448,5.9447,5.9446,5.9445,5.8526,5.8597,5.867,5.8762,5.8818,5.8883,5.8954,5.8996,5.9078,5.9177,5.9189,5.9292,5.9362,5.9482,5.9528,5.9608,5.9587,5.9618,5.9626,5.9633,5.9636,5.9441,5.9624,5.9624,5.9624,5.9623,5.9623,0,5.8699,5.8746,5.8831,5.8929,5.9,5.8991,5.9068,5.9128,5.9219,5.9285,5.9361,5.9471,5.9561,5.9615,5.9704,5.9757,5.9757,5.9779,5.9775,5.9784,5.9651,5.9623,5.9778,5.9778,5.9778,5.9777,5.9777,5.9777,5.8798,5.8916,5.894,5.9084,5.913,5.9232,5.9276,5.9335,5.9388,5.9511,5.9586,5.9621,5.9681,5.9774,5.9855,5.9868,5.99,5.9924,5.9935,5.981,5.9794,5.9778,5.9752,5.9931,5.9931,6.0061,6.0062,6.0063]}]]